Location: Rounton
(54.4000°N, 1.3500°W)
Time: 12:08:04
(UTC+00:00)

SR - Visible Passes

Search period start: 22 February 2024 00:00
Search period end: 03 March 2024 00:00
Orbit: 573 x 868 km, 66.7° (Epoch: 21 February)

Date Brightness Start Highest point End Pass type
(mag) Time Alt. Az. Time Alt. Az. Time Alt. Az.
22 Feb ? 19:28:38 10° WNW 19:33:18 25° NNW 19:37:18 12° NE visible
22 Feb ? 21:12:30 10° NW 21:16:33 24° N 21:16:33 24° N visible
22 Feb ? 22:54:57 10° NW 22:55:48 14° NW 22:55:48 14° NW visible
23 Feb ? 18:35:53 10° W 18:40:55 30° NNW 18:45:42 10° NE visible
23 Feb ? 20:20:07 10° NW 20:24:26 22° N 20:26:06 19° NNE visible
23 Feb ? 22:03:01 10° NW 22:05:21 22° NNW 22:05:21 22° NNW visible
24 Feb ? 19:27:31 10° WNW 19:31:57 23° N 19:35:38 12° NE visible
24 Feb ? 21:10:59 10° NW 21:14:53 26° N 21:14:53 26° N visible
24 Feb ? 22:53:12 10° NW 22:54:08 15° NW 22:54:08 15° NW visible
25 Feb ? 18:34:46 10° WNW 18:39:30 26° NNW 18:44:00 10° NE visible
25 Feb ? 20:18:45 10° NW 20:23:06 23° N 20:24:25 21° NNE visible
25 Feb ? 22:01:18 10° NW 22:03:40 24° NNW 22:03:40 24° NNW visible
26 Feb ? 19:26:19 10° NW 19:30:37 22° N 19:33:57 13° NE visible
26 Feb ? 21:09:20 10° NW 21:13:12 29° N 21:13:12 29° N visible
26 Feb ? 22:51:27 10° NW 22:52:28 16° NW 22:52:28 16° NW visible
27 Feb ? 18:33:39 10° WNW 18:38:07 23° N 18:42:22 10° NE visible
27 Feb ? 20:17:16 10° NW 20:21:44 25° NNE 20:22:44 23° NNE visible
27 Feb ? 21:59:32 10° NW 22:02:00 26° NNW 22:02:00 26° NNW visible
28 Feb ? 19:24:59 10° NW 19:29:16 22° N 19:32:17 14° NE visible
28 Feb ? 21:07:38 10° NW 21:11:32 34° N 21:11:32 34° N visible
28 Feb ? 22:49:44 10° NW 22:50:47 16° NW 22:50:47 16° NW visible
29 Feb ? 18:32:28 10° NW 18:36:45 22° N 18:40:50 10° NE visible
29 Feb ? 20:15:39 10° NW 20:20:18 28° NNE 20:21:05 27° NE visible
29 Feb ? 21:57:47 10° NW 22:00:20 28° NW 22:00:20 28° NW visible
01 Mar ? 19:23:31 10° NW 19:27:53 24° NNE 19:30:38 16° NE visible
01 Mar ? 21:05:52 10° NW 21:09:53 41° N 21:09:53 41° N visible
01 Mar ? 22:48:05 10° NW 22:49:09 16° NW 22:49:09 16° NW visible
02 Mar ? 18:31:10 10° NW 18:35:24 22° N 18:39:23 10° NE visible
02 Mar ? 20:13:57 10° NW 20:18:48 34° NNE 20:19:28 33° NE visible
02 Mar ? 21:56:02 10° NW 21:58:43 30° NW 21:58:43 30° NW visible
